{"data":{"norad_id":66284,"epoch":"2026-09-20T17:09:11.523744Z","epoch_age_seconds":78131,"freshness":"FRESH","line1":"1 66284U 25247V   26263.71471671  .00016773  00000+0  50644-3 0  9994","line2":"2 66284  53.1602   2.6790 0001380  81.9404 278.1755 15.34400010 50937","mean_motion":15.3440001,"eccentricity":0.000138,"inclination_deg":53.1602,"raan_deg":2.679,"arg_perigee_deg":81.9404,"mean_anomaly_deg":278.1755,"bstar":0.00050644,"rev_number":5093,"period_min":93.84775746971,"perigee_km":461.75917453595,"apogee_km":463.64724643404,"semimajor_km":6840.840210485,"source":"CELESTRAK","updated_at":"2026-09-21T09:00:35.870757Z"}}